Location: State Camp
(41.2367°N, 77.7828°W)
Time: 19:51:25
(UTC-04:00)

ADEOS Rocket - Visible Passes

Search period start: 24 October 2014 00:00
Search period end: 02 November 2014 23:00
Orbit: 860 x 1307 km, 98.7° (Epoch: 24 October)

Date Brightness Start Highest point End Pass type
(mag) Time Alt. Az. Time Alt. Az. Time Alt. Az.
24 Oct 5.1 19:29:34 13° ENE 19:30:15 13° NE 19:33:24 10° NNE visible
24 Oct 4.2 21:16:32 43° NNE 21:16:32 43° NNE 21:21:44 10° N visible
24 Oct 5.5 23:03:31 21° NW 23:03:31 21° NW 23:06:32 10° NW visible
25 Oct 4.5 20:27:11 29° NE 20:27:11 29° NE 20:32:18 10° N visible
25 Oct 4.7 22:14:09 36° NW 22:14:09 36° NW 22:18:28 10° NNW visible
26 Oct 5.0 19:37:50 15° NE 19:37:56 15° NE 19:41:52 10° NNE visible
26 Oct 4.3 21:24:48 42° N 21:24:48 42° N 21:29:41 10° N visible
26 Oct 5.7 23:11:47 18° NW 23:11:47 18° NW 23:14:09 10° NW visible
27 Oct 4.5 20:35:27 31° NE 20:35:27 31° NE 20:40:20 10° N visible
27 Oct 5.0 22:22:26 31° NW 22:22:26 31° NW 22:26:17 10° NNW visible
28 Oct 4.9 19:46:06 17° NE 19:46:06 17° NE 19:50:10 10° NNE visible
28 Oct 4.4 21:33:05 40° N 21:33:05 40° N 21:37:36 10° N visible
28 Oct 5.8 23:20:03 15° NW 23:20:03 15° NW 23:21:43 10° NW visible
29 Oct 4.5 20:43:44 32° NNE 20:43:44 32° NNE 20:48:21 10° N visible
29 Oct 5.2 22:30:42 27° NW 22:30:42 27° NW 22:34:04 10° NNW visible
30 Oct 4.9 19:54:23 19° NE 19:54:23 19° NE 19:58:23 10° NNE visible
30 Oct 4.6 21:41:21 36° N 21:41:21 36° N 21:45:29 10° NNW visible
30 Oct 6.0 23:28:20 12° NW 23:28:20 12° NW 23:29:11 10° NW visible
31 Oct 4.5 20:52:00 33° NNE 20:52:00 33° NNE 20:56:20 10° N visible
31 Oct 5.4 22:38:59 23° NW 22:38:59 23° NW 22:41:49 10° NNW visible
01 Nov 4.8 20:02:40 21° NE 20:02:40 21° NE 20:06:31 10° NNE visible
01 Nov 4.8 21:49:38 33° NNW 21:49:38 33° NNW 21:53:21 10° NNW visible
02 Nov 5.2 18:13:19 10° NE 18:13:19 10° NE 18:13:44 10° NE visible
02 Nov 4.5 20:00:17 32° NNE 20:00:17 32° NNE 20:04:17 10° N visible
02 Nov 5.5 21:47:16 20° NW 21:47:16 20° NW 21:49:31 10° NNW visible
